Location: Cran-Gévrier
(45.9039°N, 6.1012°E)
Time: 20:13:47
(UTC+00:00)

Landsat 7 - Pass Details

Date: 09 February 2023
Orbit: 692 x 694 km, 97.9° (Epoch: 23 March)

Event Time Altitude Azimuth Distance (km) Brightness Sun altitude
Exits shadow 19:15:33 62° 11° (N) 782 3.9 -25.3°
Drops below altitude 10° 19:19:34 10° 350° (N) 2,163 6.5 -26.0°
Sets 19:21:50 0° 349° (NNW) 3,084 7.4 -26.3°
